Regional Weather Roundup
Issued by NWS

Home | Current Version | Previous Version | Text Only | Print | Product List | Glossary On
Versions: 1 2 3 4 5 6 7 8 9 10 11 12 13 14 15 16 17 18 19 20 21 22 23 24 25 26 27 28 29 30 31 32 33 34 35 36 37 38 39 40 41 42 43 44 45 46 47 48 49 50
000
ASUS44 KLIX 240513
RWRLA
LOUISIANA WEATHER ROUNDUP
NATIONAL WEATHER SERVICE NEW ORLEANS LA
1200 AM CDT SAT JUN 24 2017

NOTE: "FAIR" INDICATES FEW OR NO CLOUDS BELOW 12,000 FEET WITH NO
      SIGNIFICANT WEATHER AND/OR OBSTRUCTIONS TO VISIBILITY.
      SKY/WX - SKY CONDITION AND SIGNIFICANT WEATHER.
      TMP - AIR TEMPERATURE.    DP   - DEWPOINT TEMPERATURE.
      RH  - RELATIVE HUMIDITY.  PRES - PRESSURE.
      HX  - HEAT INDEX.         WCI  - WIND CHILL INDEX.

*  THESE STATIONS ARE NOT NWS OR FAA STATIONS AND ARE NOT UNDER
   NWS QUALITY CONTROL.

LAZ040-048-061>063-065-066-069-240600-
SOUTHEAST LOUISIANA

CITY           SKY/WX    TMP DP  RH WIND       PRES   REMARKS
N.O. INTL ARPT MOCLDY    80  78  94 S6        29.99R
N.O. LAKEFRONT CLOUDY    82  78  88 S10       30.00R
N.O. DOWNTOWN*   N/A     83  77  82 S9          N/A
RESERVE*       CLOUDY    82  79  90 S3        29.99R
SLIDELL        CLOUDY    81  78  91 S5        29.99R
BATON ROUGE    MOCLDY    81  78  91 S6        29.99R
BOOTHVILLE     PTCLDY    82  79  90 S12       30.00R
BELLE CHASSE   CLOUDY   N/A N/A N/A S6        29.99R
BOGALUSA*      MOCLDY    76  72  86 W5        30.01S
GALLIANO*      PTCLDY    81  75  82 S7        29.99R
NEW ROADS*       N/A     78  77  96 S3        29.98S
GONZALES*      CLOUDY    81  79  94 S5        29.98R
HAMMOND*       MOCLDY    81  77  89 SW5       29.99R
HOUMA*         NOT AVBL
PORT FOURCHON* MOCLDY    82  77  83 S8G15     29.99S

$$

LAZ041-044-053-054-240600-
SOUTHWEST LOUISIANA

CITY           SKY/WX    TMP DP  RH WIND       PRES   REMARKS
LAKE CHARLES   CLOUDY   N/A N/A N/A CALM      29.95R
LAFAYETTE      CLOUDY    81  80  97 CALM      29.97R
PATTERSON      MOCLDY    80  79  96 S5        29.98R
SALT POINT       N/A     82  78  88 CALM      29.96R
NEW IBERIA     MOCLDY    81  77  88 S5        29.97R
CHENAULT AIRPK CLOUDY    78  78  99 SE5       29.96R

$$

LAZ027-028-240600-
CENTRAL LOUISIANA

CITY           SKY/WX    TMP DP  RH WIND       PRES   REMARKS
FORT POLK      PTCLDY    79  77  93 SE3       29.96R
ALEXANDRIA INT MOCLDY    79  78  97 SE6       29.94S
ALEXANDRIA     CLOUDY    75  73  93 NE16G23   29.99R

$$

LAZ001-002-240600-
NORTHWEST LOUISIANA

CITY           SKY/WX    TMP DP  RH WIND       PRES   REMARKS
SHREVEPORT     TSTM      78  74  87 E16       29.94R
BARKSDALE AFB  PTCLDY    76  73  92 SE9       29.94F
DTN SHREVEPORT CLOUDY    79  73  82 E5        29.95R

$$

LAZ014-016-240600-
NORTHEAST LOUISIANA

CITY           SKY/WX    TMP DP  RH WIND       PRES   REMARKS
MONROE         LGT RAIN  71  69  93 SE8       29.95F
TALLULAH       MOCLDY    70  69  97 CALM      29.95F

$$




USA.gov is the U.S. government's official web portal to all federal, state and local government web resources and services.